Location: Hermaringen
(48.5952°N, 10.2585°E)
Time: 07:06:03
(UTC+00:00)

COSMO-SKYMED 1 - Pass Details

Date: 18 November 2025
Orbit: 579 x 581 km, 97.9° (Epoch: 06 December)

Event Time Altitude Azimuth Distance (km) Brightness Sun altitude
Exits shadow 17:26:44 38° 58° (ENE) 903 2.9 -18.1°
Maximum altitude 17:27:46 47° 99° (E) 780 2.6 -18.2°
Drops below altitude 10° 17:31:44 10° 174° (S) 1,890 5.1 -18.9°
Sets 17:33:56 0° 180° (S) 2,784 6.0 -19.3°
